DLH2WR EDDM-EDDS

Flight info

Callsign DLH2WR
Flight time 0h 24m
Altitude 16000
Route RIDAR6S/26L RIDAR L173 DODIL T127 TEKSI TEKSI1W
Aircraft A20N/M-SDE2E3FGHIRWXY/LB1

Departure

Time 2026-05-06 16:46
Airport Munich Airport (EDDM)

Arrival

Time 2026-05-06 17:10
Airport Stuttgart Airport (EDDS)
Time Latitude Longitude Altitude Speed Heading
2026-05-06 16:15 48.35677 11.79258 1473 ft 0 kts 263°
2026-05-06 16:35 48.35678 11.79272 1473 ft 2 kts 263°
2026-05-06 16:35 48.35680 11.79293 1473 ft 2 kts 264°
2026-05-06 16:35 48.35681 11.79316 1473 ft 2 kts 263°
2026-05-06 16:36 48.35683 11.79339 1472 ft 2 kts 264°
2026-05-06 16:36 48.35685 11.79361 1472 ft 2 kts 263°
2026-05-06 16:36 48.35686 11.79383 1472 ft 1 kts 264°
2026-05-06 16:36 48.35687 11.79397 1472 ft 1 kts 244°
2026-05-06 16:37 48.35698 11.79411 1472 ft 2 kts 191°
2026-05-06 16:37 48.35706 11.79411 1472 ft 1 kts 165°
2026-05-06 16:37 48.35710 11.79410 1472 ft 0 kts 173°
2026-05-06 16:40 48.35709 11.79411 1472 ft 2 kts 170°
2026-05-06 16:40 48.35672 11.79435 1472 ft 9 kts 155°
2026-05-06 16:40 48.35605 11.79488 1472 ft 11 kts 158°
2026-05-06 16:41 48.35526 11.79510 1472 ft 11 kts 174°
2026-05-06 16:41 48.35444 11.79524 1473 ft 12 kts 173°
2026-05-06 16:41 48.35374 11.79536 1473 ft 8 kts 173°
2026-05-06 16:41 48.35310 11.79547 1473 ft 9 kts 174°
2026-05-06 16:42 48.35241 11.79559 1474 ft 10 kts 173°
2026-05-06 16:42 48.35167 11.79572 1474 ft 10 kts 173°
2026-05-06 16:42 48.35095 11.79603 1474 ft 11 kts 150°
2026-05-06 16:42 48.35022 11.79663 1474 ft 12 kts 162°
2026-05-06 16:43 48.34941 11.79678 1474 ft 11 kts 175°
2026-05-06 16:43 48.34889 11.79688 1474 ft 5 kts 173°
2026-05-06 16:43 48.34859 11.79693 1474 ft 4 kts 173°
2026-05-06 16:43 48.34822 11.79700 1474 ft 5 kts 174°
2026-05-06 16:44 48.34777 11.79707 1474 ft 7 kts 174°
2026-05-06 16:44 48.34723 11.79715 1474 ft 8 kts 175°
2026-05-06 16:44 48.34681 11.79664 1475 ft 8 kts 234°
2026-05-06 16:44 48.34645 11.79589 1475 ft 9 kts 234°
2026-05-06 16:45 48.34607 11.79510 1476 ft 9 kts 234°
2026-05-06 16:45 48.34566 11.79424 1476 ft 10 kts 234°
2026-05-06 16:45 48.34522 11.79334 1476 ft 11 kts 232°
2026-05-06 16:45 48.34438 11.79168 1477 ft 27 kts 235°
2026-05-06 16:46 48.34356 11.78839 1479 ft 40 kts 262°
2026-05-06 16:46 48.34298 11.78103 1482 ft 105 kts 264°
2026-05-06 16:46 48.34190 11.76719 1526 ft 157 kts 266°
2026-05-06 16:46 48.34081 11.75116 2146 ft 158 kts 267°
2026-05-06 16:47 48.33978 11.73487 2855 ft 160 kts 266°
2026-05-06 16:47 48.33859 11.71804 3543 ft 166 kts 265°
2026-05-06 16:47 48.33728 11.70009 4068 ft 182 kts 265°
2026-05-06 16:47 48.33580 11.68048 4578 ft 200 kts 265°
2026-05-06 16:48 48.33410 11.65822 5062 ft 223 kts 265°
2026-05-06 16:48 48.33228 11.63501 5919 ft 228 kts 265°
2026-05-06 16:48 48.33047 11.61117 6726 ft 236 kts 265°
2026-05-06 16:48 48.32865 11.58580 7297 ft 254 kts 264°
2026-05-06 16:49 48.32669 11.55856 7930 ft 269 kts 263°
2026-05-06 16:49 48.32529 11.53039 8771 ft 276 kts 273°
2026-05-06 16:49 48.33108 11.50306 9629 ft 283 kts 296°
2026-05-06 16:49 48.34114 11.47739 10358 ft 293 kts 299°
2026-05-06 16:50 48.35219 11.45049 10844 ft 310 kts 299°
2026-05-06 16:50 48.36350 11.42198 11336 ft 325 kts 298°
2026-05-06 16:50 48.37485 11.39245 12067 ft 331 kts 297°
2026-05-06 16:50 48.38604 11.36271 12899 ft 333 kts 297°
2026-05-06 16:51 48.39748 11.33185 13730 ft 336 kts 295°
2026-05-06 16:51 48.40872 11.30111 14467 ft 341 kts 295°
2026-05-06 16:51 48.42010 11.26985 15184 ft 345 kts 295°
2026-05-06 16:51 48.43162 11.23808 15622 ft 347 kts 295°
2026-05-06 16:52 48.44308 11.20644 15782 ft 348 kts 295°
2026-05-06 16:52 48.45478 11.17410 15781 ft 347 kts 294°
2026-05-06 16:52 48.46401 11.14117 15793 ft 344 kts 285°
2026-05-06 16:52 48.47120 11.10692 15794 ft 343 kts 283°
2026-05-06 16:53 48.47810 11.07270 15798 ft 343 kts 283°
2026-05-06 16:53 48.48518 11.03805 15797 ft 344 kts 284°
2026-05-06 16:53 48.49240 11.00354 15804 ft 344 kts 284°
2026-05-06 16:53 48.49967 10.96923 15800 ft 344 kts 284°
2026-05-06 16:54 48.50704 10.93476 15800 ft 344 kts 284°
2026-05-06 16:54 48.51437 10.90060 15799 ft 344 kts 284°
2026-05-06 16:54 48.52179 10.86609 15802 ft 344 kts 284°
2026-05-06 16:54 48.52911 10.83209 15808 ft 344 kts 284°
2026-05-06 16:55 48.53646 10.79793 15812 ft 345 kts 284°
2026-05-06 16:55 48.54388 10.76338 15805 ft 345 kts 284°
2026-05-06 16:55 48.55119 10.72927 15810 ft 344 kts 284°
2026-05-06 16:55 48.55860 10.69464 15833 ft 345 kts 284°
2026-05-06 16:56 48.56596 10.66021 15868 ft 345 kts 284°
2026-05-06 16:56 48.57327 10.62594 15852 ft 345 kts 284°
2026-05-06 16:56 48.58051 10.59204 15645 ft 340 kts 284°
2026-05-06 16:56 48.58778 10.55789 15113 ft 340 kts 285°
2026-05-06 16:57 48.59494 10.52414 14638 ft 338 kts 284°
2026-05-06 16:57 48.60207 10.49050 14197 ft 336 kts 284°
2026-05-06 16:57 48.60912 10.45717 13739 ft 333 kts 285°
2026-05-06 16:57 48.61610 10.42412 13289 ft 331 kts 285°
2026-05-06 16:58 48.62310 10.39094 12829 ft 329 kts 285°
2026-05-06 16:58 48.63000 10.35817 12380 ft 327 kts 285°
2026-05-06 16:58 48.63677 10.32595 11939 ft 324 kts 284°
2026-05-06 16:58 48.64348 10.29386 11499 ft 322 kts 285°
2026-05-06 16:59 48.65026 10.26141 11051 ft 320 kts 285°
2026-05-06 16:59 48.65682 10.22962 10608 ft 318 kts 285°
2026-05-06 16:59 48.66321 10.19801 10158 ft 316 kts 285°
2026-05-06 16:59 48.66956 10.16629 9855 ft 312 kts 285°
2026-05-06 17:00 48.67560 10.13576 9816 ft 297 kts 284°
2026-05-06 17:00 48.68140 10.10656 9811 ft 283 kts 285°
2026-05-06 17:00 48.68698 10.07855 9811 ft 284 kts 284°
2026-05-06 17:00 48.69279 10.04936 9810 ft 284 kts 284°
2026-05-06 17:01 48.69838 10.02135 9805 ft 284 kts 284°
2026-05-06 17:01 48.70410 9.99275 9805 ft 284 kts 285°
2026-05-06 17:01 48.70974 9.96433 9771 ft 280 kts 285°
2026-05-06 17:01 48.71526 9.93644 9464 ft 277 kts 285°
2026-05-06 17:02 48.72013 9.90825 9043 ft 277 kts 281°
2026-05-06 17:02 48.72378 9.88008 8679 ft 274 kts 279°
2026-05-06 17:02 48.72708 9.85175 8299 ft 272 kts 278°
2026-05-06 17:02 48.73021 9.82370 7964 ft 269 kts 279°
2026-05-06 17:03 48.73326 9.79614 7631 ft 266 kts 279°
2026-05-06 17:03 48.73626 9.76841 7311 ft 264 kts 279°
2026-05-06 17:03 48.73908 9.74119 6933 ft 262 kts 279°
2026-05-06 17:03 48.74182 9.71392 6582 ft 260 kts 280°
2026-05-06 17:04 48.74446 9.68732 6242 ft 256 kts 279°
2026-05-06 17:04 48.74710 9.66100 6090 ft 247 kts 279°
2026-05-06 17:04 48.74966 9.63555 5916 ft 239 kts 279°
2026-05-06 17:04 48.75205 9.61120 5747 ft 230 kts 278°
2026-05-06 17:05 48.75378 9.58765 5586 ft 222 kts 272°
2026-05-06 17:05 48.75286 9.56476 5419 ft 216 kts 263°
2026-05-06 17:05 48.74997 9.54250 5133 ft 214 kts 259°
2026-05-06 17:05 48.74656 9.52080 4851 ft 213 kts 257°
2026-05-06 17:06 48.74277 9.49933 4570 ft 211 kts 257°
2026-05-06 17:06 48.73880 9.47809 4274 ft 204 kts 256°
2026-05-06 17:06 48.73498 9.45820 4012 ft 194 kts 256°
2026-05-06 17:06 48.73125 9.43890 3771 ft 190 kts 256°
2026-05-06 17:07 48.72764 9.42014 3607 ft 180 kts 256°
2026-05-06 17:07 48.72422 9.40238 3345 ft 170 kts 256°
2026-05-06 17:07 48.72107 9.38575 3069 ft 159 kts 256°
2026-05-06 17:07 48.71811 9.37013 2815 ft 149 kts 256°
2026-05-06 17:08 48.71530 9.35584 2648 ft 135 kts 255°
2026-05-06 17:08 48.71262 9.34208 2520 ft 139 kts 254°
2026-05-06 17:08 48.70998 9.32780 2333 ft 140 kts 256°
2026-05-06 17:08 48.70741 9.31380 2138 ft 137 kts 253°
2026-05-06 17:09 48.70467 9.30011 1936 ft 134 kts 253°
2026-05-06 17:09 48.70212 9.28646 1773 ft 135 kts 253°
2026-05-06 17:09 48.69959 9.27288 1599 ft 136 kts 254°
2026-05-06 17:09 48.69693 9.25905 1424 ft 137 kts 253°
2026-05-06 17:10 48.69436 9.24533 1238 ft 134 kts 253°
2026-05-06 17:10 48.69189 9.23258 1204 ft 113 kts 254°
2026-05-06 17:10 48.69017 9.22364 1227 ft 64 kts 253°
2026-05-06 17:10 48.68944 9.21935 1238 ft 30 kts 263°
2026-05-06 17:11 48.68955 9.21672 1244 ft 17 kts 284°
2026-05-06 17:11 48.68979 9.21524 1247 ft 13 kts 283°
2026-05-06 17:11 48.68995 9.21421 1248 ft 9 kts 284°
2026-05-06 17:11 48.68999 9.21334 1250 ft 7 kts 257°
2026-05-06 17:12 48.68986 9.21264 1252 ft 6 kts 251°
2026-05-06 17:12 48.68974 9.21208 1253 ft 4 kts 255°
2026-05-06 17:12 48.68961 9.21135 1255 ft 11 kts 253°
2026-05-06 17:12 48.68929 9.20971 1259 ft 20 kts 254°
2026-05-06 17:13 48.68882 9.20725 1267 ft 26 kts 253°
2026-05-06 17:13 48.68844 9.20517 1274 ft 15 kts 253°
2026-05-06 17:13 48.68817 9.20378 1278 ft 11 kts 254°
2026-05-06 17:13 48.68796 9.20272 1281 ft 10 kts 254°
2026-05-06 17:14 48.68775 9.20157 1284 ft 13 kts 252°
2026-05-06 17:14 48.68751 9.20011 1288 ft 13 kts 277°
2026-05-06 17:14 48.68763 9.19899 1291 ft 9 kts 260°
2026-05-06 17:14 48.68740 9.19768 1293 ft 15 kts 257°
2026-05-06 17:15 48.68714 9.19626 1294 ft 15 kts 255°
2026-05-06 17:15 48.68684 9.19475 1295 ft 14 kts 254°
2026-05-06 17:15 48.68658 9.19342 1297 ft 12 kts 253°
2026-05-06 17:15 48.68642 9.19221 1296 ft 11 kts 284°
2026-05-06 17:16 48.68702 9.19160 1294 ft 11 kts 346°
2026-05-06 17:16 48.68762 9.19179 1294 ft 8 kts 62°
2026-05-06 17:16 48.68779 9.19263 1294 ft 7 kts 75°
2026-05-06 17:16 48.68777 9.19324 1294 ft 5 kts 162°
2026-05-06 17:17 48.68740 9.19335 1294 ft 3 kts 162°
2026-05-06 17:17 48.68724 9.19342 1295 ft 0 kts 164°